Date,TemperatureHighF,TemperatureAvgF,TemperatureLowF,DewpointHighF,DewpointAvgF,DewpointLowF,HumidityHigh,HumidityAvg,HumidityLow,PressureMaxIn,PressureMinIn,WindSpeedMaxMPH,WindSpeedAvgMPH,GustSpeedMaxMPH,PrecipitationSumIn
2013-1-1,20,12,3,8,1,-7,70,59,44,30.27,30.06,6,3,9,0.00
2013-1-2,35,24,13,26,15,3,76,67,53,30.21,30.00,7,4,9,0.00
2013-1-3,30,23,17,23,13,5,75,64,44,30.39,30.18,8,3,13,0.00
2013-1-4,34,22,15,13,10,6,79,60,41,30.27,30.09,8,4,10,0.00
2013-1-5,31,23,12,19,11,2,91,62,46,30.18,29.94,12,4,17,0.00
2013-1-6,35,24,12,17,12,5,75,61,44,30.27,30.09,8,3,12,0.00
2013-1-7,38,31,21,21,18,14,77,57,48,30.09,29.91,11,4,15,0.00
2013-1-8,39,31,21,25,22,15,86,70,52,30.09,29.80,10,4,14,0.00
2013-1-9,48,36,25,26,22,18,78,59,38,30.42,30.09,10,3,13,0.00
2013-1-10,39,36,32,36,26,16,98,69,41,30.30,29.65,12,4,20,0.40
2013-1-11,51,40,26,48,36,10,98,87,52,29.74,29.38,13,4,20,0.00
2013-1-12,25,18,10,12,1,-5,57,47,38,30.12,29.74,13,5,23,0.00
2013-1-13,23,14,7,0,-4,-8,50,44,34,30.33,30.12,8,3,13,0.08
2013-1-14,29,17,8,6,0,-8,62,46,34,30.42,30.27,9,3,12,0.00
2013-1-15,35,24,12,13,8,-1,63,51,35,30.33,29.97,10,4,14,0.00
2013-1-16,53,37,23,27,20,10,73,52,31,30.18,29.85,11,5,15,0.00
2013-1-17,32,28,23,31,26,19,98,93,74,30.44,30.18,6,1,10,0.00
2013-1-18,51,40,29,29,24,20,95,54,36,30.27,29.85,15,6,21,0.00
2013-1-19,54,46,33,24,22,20,63,41,30,30.03,29.83,11,5,16,0.00
2013-1-20,52,27,13,22,7,-2,59,44,31,30.36,30.03,6,3,9,0.00
2013-1-21,14,10,5,5,-3,-8,67,54,52,30.42,30.30,10,3,14,0.00
2013-1-22,21,14,10,6,0,-4,61,54,50,30.36,30.18,6,2,8,0.00
2013-1-23,32,19,9,12,3,-7,65,51,40,30.48,30.12,7,3,13,0.00
2013-1-24,19,10,2,-1,-8,-14,47,43,37,30.53,30.12,9,4,14,0.00
2013-1-25,50,30,14,21,10,-2,65,45,28,30.18,30.09,8,2,10,0.00
2013-1-26,48,32,17,20,14,4,67,49,31,30.21,29.97,10,5,15,0.00
2013-1-27,42,38,36,41,32,16,98,81,42,29.97,29.65,9,4,14,0.20
2013-1-28,44,38,34,44,38,33,98,98,98,29.85,29.53,6,2,9,0.00
2013-1-29,40,34,31,40,31,26,98,88,75,29.71,29.53,9,4,18,0.04
2013-1-30,31,22,14,30,13,2,98,71,45,29.91,29.62,11,5,18,0.00
2013-1-31,14,7,-1,2,-6,-13,57,56,56,30.36,29.91,12,5,20,0.00
2013-2-1,27,13,-4,13,0,-15,60,54,47,30.39,30.00,12,5,21,0.00
2013-2-2,38,30,24,29,19,11,83,64,50,30.15,29.97,12,3,20,0.00
2013-2-3,42,33,19,24,17,7,68,51,39,30.21,29.74,13,5,20,0.00
2013-2-4,37,27,22,25,18,13,87,70,54,30.00,29.74,8,3,14,0.00
2013-2-5,52,38,25,26,22,15,92,56,29,30.00,29.74,9,3,14,0.00
2013-2-6,55,41,30,32,26,18,74,56,38,30.03,29.80,11,3,17,0.00
2013-2-7,40,33,29,32,25,17,84,71,61,30.21,29.85,8,4,13,0.00
2013-2-8,33,28,25,24,21,17,85,74,60,30.30,30.09,9,4,14,0.00
2013-2-9,49,38,28,30,28,24,92,71,47,30.12,29.62,12,8,18,0.00
2013-2-10,45,37,30,43,29,16,98,76,52,29.77,29.24,16,8,24,0.20
2013-2-11,36,30,22,21,16,13,81,55,42,30.12,29.74,14,5,21,0.00
2013-2-12,50,33,20,19,16,10,87,55,27,30.15,29.85,13,3,15,0.00
2013-2-13,55,38,24,24,20,15,81,52,27,29.88,29.68,11,4,15,0.00
2013-2-14,45,36,21,32,21,8,93,55,31,30.24,29.74,12,4,19,0.00
2013-2-15,33,23,14,22,12,4,92,64,36,30.33,30.21,6,2,10,0.00
2013-2-16,34,23,8,20,14,4,88,69,52,30.33,29.97,7,3,11,0.04
2013-2-17,27,23,23,18,16,16,75,74,66,30.00,29.91,4,3,6,0.00
2013-2-18,49,28,21,29,16,8,87,62,41,30.06,29.53,13,5,20,0.04
2013-2-19,28,17,9,10,-3,-10,58,43,26,30.33,30.03,11,5,18,0.00
2013-2-20,24,16,5,0,-6,-14,45,38,34,30.36,30.15,8,4,12,0.00
2013-2-21,25,22,20,20,10,0,91,64,38,30.21,29.83,9,4,14,0.00
2013-2-22,24,18,10,19,12,1,89,77,58,30.00,29.80,8,3,13,0.00
2013-2-23,37,21,6,21,11,-2,83,65,49,29.97,29.77,7,3,12,0.09
2013-2-24,46,31,20,24,19,14,80,64,36,30.00,29.85,4,2,6,0.04
2013-2-25,36,29,26,25,22,19,91,75,54,30.06,29.85,6,3,11,0.00
2013-2-26,32,28,24,26,24,21,98,86,73,29.88,29.74,8,4,13,0.00
2013-2-27,38,30,24,22,18,13,83,63,41,30.06,29.85,10,5,19,0.00
2013-2-28,34,27,25,20,17,14,74,66,50,30.21,30.06,10,4,14,0.00
2013-3-1,29,25,23,18,12,9,74,58,43,30.30,30.18,8,4,13,0.00
2013-3-2,35,27,16,18,12,8,78,54,40,30.33,30.06,7,3,10,0.00
2013-3-3,40,32,26,23,20,17,76,60,49,30.06,29.68,11,6,15,0.00
2013-3-4,44,35,30,29,22,12,86,59,41,30.00,29.62,9,4,15,0.00
2013-3-5,33,27,23,14,11,7,57,50,42,30.36,29.97,15,6,23,0.00
2013-3-6,39,29,20,16,13,10,68,53,35,30.42,30.15,8,3,13,0.00
2013-3-7,51,35,23,23,19,15,74,54,31,30.24,30.03,11,6,16,0.00
2013-3-8,55,41,30,37,26,20,85,56,36,30.15,29.85,14,6,17,0.16
2013-3-9,54,45,35,50,42,33,95,88,71,29.85,29.53,10,5,15,0.28
2013-3-10,35,28,22,33,26,21,98,95,87,29.91,29.65,11,6,18,0.08
2013-3-11,30,23,20,21,17,8,96,78,51,29.97,29.83,10,4,18,0.00
2013-3-12,34,28,21,19,15,10,85,59,44,30.30,29.97,12,5,20,0.00
2013-3-13,36,27,16,16,13,9,82,56,38,30.44,30.21,6,3,10,0.09
2013-3-14,60,42,32,32,24,14,76,49,35,30.21,30.03,7,2,10,0.00
2013-3-15,61,46,35,36,33,28,86,63,37,30.06,29.68,8,3,10,0.00
2013-3-16,39,32,28,36,22,16,89,67,51,30.15,29.80,9,4,17,0.00
2013-3-17,45,36,25,32,20,13,90,54,38,30.12,29.71,10,5,15,0.00
2013-3-18,38,34,25,34,17,6,98,55,30,30.00,29.71,17,6,25,0.04
2013-3-19,53,33,20,21,11,4,57,42,24,30.30,30.00,10,3,17,0.00
2013-3-20,38,25,15,9,4,-2,58,40,29,30.36,30.06,8,3,13,0.00
2013-3-21,32,27,21,10,6,3,53,42,33,30.06,29.85,7,4,12,0.00
2013-3-22,35,31,26,16,12,8,54,45,40,30.03,29.91,5,3,8,0.00
2013-3-23,39,32,28,27,20,12,91,62,39,30.06,29.97,6,3,10,0.00
2013-3-24,29,26,25,26,17,11,91,69,49,30.06,29.94,10,5,17,0.00
2013-3-25,31,26,23,23,17,12,89,69,47,30.30,30.03,9,4,15,0.00
2013-3-26,42,29,17,20,13,9,74,53,34,30.36,30.18,7,2,10,0.08
2013-3-27,53,41,26,24,20,14,68,44,29,30.24,30.09,10,5,15,0.00
2013-3-28,59,44,28,29,23,20,80,47,26,30.24,30.09,6,2,9,0.00
2013-3-29,69,53,35,34,26,21,73,40,20,30.18,30.00,10,4,15,0.00
2013-3-30,68,56,48,52,38,22,97,57,23,30.06,29.85,8,3,14,0.37
2013-3-31,59,50,32,52,28,18,90,49,22,30.09,29.91,10,4,15,0.00
2013-4-1,43,32,21,29,15,7,89,54,29,30.30,30.09,7,3,11,0.00
2013-4-2,55,39,23,22,15,8,64,40,26,30.30,30.18,7,2,10,0.00
2013-4-3,57,42,30,23,18,13,53,38,26,30.33,30.15,10,4,15,0.00
2013-4-4,66,49,32,33,25,16,75,42,25,30.18,30.00,11,4,14,0.00
2013-4-5,68,52,35,32,26,20,65,38,22,30.12,29.68,14,6,20,0.00
2013-4-6,71,59,50,40,33,27,61,39,23,29.77,29.56,13,4,20,0.00
2013-4-7,74,56,44,49,37,32,86,51,23,29.83,29.59,14,3,17,0.25
2013-4-8,67,58,48,62,54,46,98,88,67,29.74,29.56,12,4,15,0.29
2013-4-9,63,46,34,60,45,33,98,96,82,29.94,29.56,9,4,18,0.92
2013-4-10,37,35,32,36,34,32,98,97,93,29.97,29.77,16,4,19,0.42
2013-4-11,36,32,30,33,28,24,98,86,70,29.80,29.62,9,5,15,0.08
2013-4-12,41,35,30,28,24,20,84,64,45,30.00,29.71,10,5,16,0.00
2013-4-13,54,41,26,32,26,20,87,58,40,30.00,29.59,11,4,16,0.00
2013-4-14,67,52,43,46,37,24,83,58,35,29.65,29.26,19,6,25,0.20
2013-4-15,46,40,33,27,22,15,77,48,39,30.06,29.62,8,4,12,0.00
2013-4-16,53,43,35,26,23,21,65,46,30,30.21,30.03,8,3,13,0.00
2013-4-17,47,41,36,42,36,25,98,84,43,30.12,29.71,9,4,15,1.20
2013-4-18,36,34,31,35,29,22,98,86,61,29.88,29.65,13,7,24,0.70
2013-4-19,47,37,28,23,16,13,68,44,29,30.06,29.85,12,5,18,0.00
2013-4-20,47,37,24,21,16,13,74,45,29,30.21,30.06,9,3,14,0.00
2013-4-21,68,54,44,50,32,21,91,46,26,30.09,29.94,16,6,23,0.33
2013-4-22,51,43,33,51,42,25,98,94,74,30.18,29.94,10,3,15,1.47
2013-4-23,40,33,28,25,18,13,75,55,40,30.24,30.09,10,5,17,0.00
2013-4-24,60,40,24,33,22,16,80,52,22,30.21,29.97,15,5,18,0.00
2013-4-25,70,51,32,30,26,21,78,44,22,30.24,29.97,13,5,19,0.00
2013-4-26,71,58,50,45,35,27,84,44,28,30.15,29.97,12,6,16,0.00
2013-4-27,70,55,43,50,44,39,98,70,34,30.18,29.91,6,3,10,0.00
2013-4-28,82,64,46,52,43,37,98,55,21,29.94,29.62,12,4,16,0.00
2013-4-29,84,68,55,51,45,37,74,47,19,29.74,29.47,8,2,12,0.00
2013-4-30,74,69,61,48,39,29,42,34,28,29.85,29.44,14,5,19,0.00
2013-5-1,61,42,33,38,34,29,98,79,29,30.36,29.85,10,5,18,0.29
2013-5-2,50,40,33,34,26,21,98,62,37,30.53,30.33,10,4,18,0.64
2013-5-3,48,40,31,26,24,20,78,53,38,30.36,30.00,8,4,16,0.00
2013-5-4,43,39,35,40,36,27,98,88,60,30.09,29.94,10,5,17,0.00
2013-5-5,55,47,41,45,42,40,98,84,65,30.12,30.03,6,3,10,0.00
2013-5-6,69,55,47,48,44,40,95,69,37,30.15,30.00,5,2,8,0.00
2013-5-7,73,60,46,56,46,40,98,64,33,30.06,29.91,7,2,13,0.16
2013-5-8,68,62,56,58,53,48,90,73,59,29.97,29.85,7,2,10,0.36
2013-5-9,68,59,56,59,55,47,98,88,51,29.97,29.85,8,2,12,0.80
2013-5-10,70,58,49,51,43,36,93,62,31,30.09,29.97,6,3,12,0.00
2013-5-11,61,54,45,42,25,14,72,34,22,30.24,30.00,12,4,21,0.00
2013-5-12,66,52,35,28,22,15,60,32,20,30.24,30.06,6,2,13,0.00
2013-5-13,83,66,47,42,34,19,57,32,19,30.09,29.80,12,5,19,0.00
2013-5-14,100,80,61,56,43,31,73,34,10,29.83,29.59,16,5,24,0.00
2013-5-15,83,74,63,36,33,27,34,22,16,29.88,29.74,10,3,14,0.00
2013-5-16,85,73,61,57,45,31,53,38,23,29.83,29.71,10,3,15,0.00
2013-5-17,86,75,64,58,52,47,77,48,29,29.85,29.74,9,3,13,0.00
2013-5-18,84,74,63,60,56,49,85,54,33,29.85,29.65,15,5,18,0.00
2013-5-19,76,66,59,70,60,48,98,82,54,29.74,29.47,11,3,15,1.04
2013-5-20,76,66,57,57,49,40,94,60,31,29.65,29.50,14,6,20,0.00
2013-5-21,63,58,54,55,45,37,84,62,42,29.74,29.56,12,6,16,0.00
2013-5-22,60,55,51,54,46,42,94,73,53,29.94,29.68,9,4,15,0.00
2013-5-23,73,60,51,48,42,32,85,55,25,30.21,29.94,9,3,13,0.00
2013-5-24,74,63,50,45,39,33,64,43,29,30.24,30.00,12,5,17,0.00
2013-5-25,78,68,58,65,56,37,98,68,36,30.09,29.91,11,5,16,0.40
2013-5-26,82,70,64,66,62,59,93,77,49,29.94,29.80,7,4,12,0.00
2013-5-27,78,68,60,63,58,52,98,75,45,29.88,29.56,12,4,24,1.62
2013-5-28,81,71,61,66,58,46,98,67,31,29.71,29.59,7,2,10,0.05
2013-5-29,74,68,63,69,61,54,93,77,57,29.71,29.50,12,5,16,0.76
2013-5-30,75,66,60,62,56,47,98,73,45,29.59,29.47,14,5,21,0.13
2013-5-31,79,68,59,52,42,34,76,41,23,29.71,29.56,14,6,21,0.00
2013-6-1,62,58,54,53,44,36,84,61,39,30.00,29.62,11,6,18,0.00
2013-6-2,69,59,50,45,38,33,76,48,29,30.09,29.97,8,2,11,0.00
2013-6-3,74,63,51,45,41,34,73,46,26,30.03,29.80,10,5,17,0.00
2013-6-4,73,66,59,60,54,45,89,67,49,29.94,29.83,9,3,15,0.04
2013-6-5,75,65,57,61,44,36,92,51,27,30.03,29.91,8,3,12,0.00
2013-6-6,74,64,55,52,43,38,74,50,31,29.97,29.91,7,2,11,0.00
2013-6-7,75,64,52,50,42,38,87,49,29,30.03,29.85,6,2,10,0.00
2013-6-8,68,62,58,63,53,41,98,73,47,29.85,29.65,12,4,17,1.06
2013-6-9,68,63,60,62,54,49,97,73,51,29.83,29.68,10,5,15,0.13
2013-6-10,78,67,57,59,55,51,96,69,39,29.88,29.74,8,2,13,0.00
2013-6-11,88,76,68,64,58,50,76,56,29,29.80,29.62,7,3,10,0.00
2013-6-12,88,77,63,64,54,44,69,47,31,29.97,29.62,11,4,18,0.00
2013-6-13,80,68,57,53,48,41,79,52,30,30.09,29.94,6,2,8,0.00
2013-6-14,90,73,63,66,58,51,96,62,39,30.00,29.71,14,5,24,1.34
2013-6-15,81,73,67,67,59,49,90,63,35,29.88,29.74,14,4,18,0.00
2013-6-16,88,78,67,70,55,42,98,52,22,29.94,29.85,5,2,8,0.00
2013-6-17,89,77,65,53,47,41,65,36,21,29.97,29.85,6,2,9,0.00
2013-6-18,83,73,65,59,46,40,72,41,22,30.03,29.91,4,1,7,0.04
2013-6-19,87,76,65,58,52,44,71,45,29,29.97,29.85,10,4,16,0.00
2013-6-20,90,80,69,64,60,54,73,52,37,29.88,29.74,13,6,18,0.00
2013-6-21,94,84,77,66,61,56,65,47,29,29.85,29.71,12,6,20,0.00
2013-6-22,91,81,70,64,57,47,66,45,29,29.97,29.74,14,6,21,0.00
2013-6-23,80,74,65,65,61,56,96,66,47,29.88,29.68,14,4,17,1.30
2013-6-24,82,75,64,67,64,57,96,70,49,29.97,29.65,29,4,36,0.64
2013-6-25,86,79,71,68,62,52,78,58,42,29.74,29.62,11,4,15,0.00
2013-6-26,92,82,74,72,58,46,94,50,21,29.83,29.62,8,3,12,0.04
2013-6-27,86,75,70,69,58,52,85,58,37,29.94,29.80,7,2,8,0.20
2013-6-28,86,77,68,62,50,41,76,43,21,29.94,29.85,11,4,18,0.00
2013-6-29,81,72,65,51,46,42,55,40,27,29.91,29.83,11,4,18,0.00
2013-6-30,79,69,59,52,45,37,72,45,25,30.06,29.88,6,2,10,0.00
2013-7-1,85,72,56,48,42,37,73,37,20,30.12,30.03,6,1,9,0.00
2013-7-2,83,68,60,55,47,42,73,50,24,30.12,29.97,9,1,13,0.00
2013-7-3,85,72,60,62,50,40,97,52,23,30.03,29.88,7,2,10,0.00
2013-7-4,86,74,62,52,47,40,63,40,21,29.94,29.85,9,4,15,0.00
2013-7-5,86,76,67,56,51,45,59,42,29,29.88,29.77,10,5,16,0.00
2013-7-6,88,78,70,59,55,52,58,46,31,29.83,29.74,11,5,17,0.00
2013-7-7,92,82,72,61,56,52,57,42,28,29.85,29.74,11,4,19,0.00
2013-7-8,90,82,76,68,62,55,65,52,33,29.88,29.83,8,3,13,0.00
2013-7-9,96,85,76,66,62,56,67,49,27,29.88,29.77,7,3,10,0.00
2013-7-10,86,78,70,64,56,48,75,49,30,30.00,29.88,7,2,10,0.00
2013-7-11,85,76,66,56,51,47,70,45,30,30.03,29.88,10,4,13,0.00
2013-7-12,89,78,68,60,55,50,59,45,37,29.97,29.85,10,6,15,0.00
2013-7-13,89,80,72,64,57,51,58,47,38,29.91,29.85,10,6,17,0.00
2013-7-14,86,78,70,58,52,47,58,41,28,30.09,29.91,10,4,17,0.00
2013-7-15,88,78,66,60,56,51,71,48,31,30.12,30.03,7,2,11,0.00
2013-7-16,90,80,69,63,56,48,75,47,28,30.21,30.09,8,2,11,0.00
2013-7-17,92,82,72,65,59,53,75,48,28,30.21,30.09,8,3,12,0.00
2013-7-18,93,83,73,64,58,52,69,44,26,30.12,29.85,14,5,18,0.00
2013-7-19,95,83,76,61,53,44,54,37,19,29.88,29.80,10,4,13,0.00
2013-7-20,89,78,68,56,50,41,63,38,21,29.94,29.80,8,2,11,0.00
2013-7-21,90,79,71,65,59,52,76,54,31,29.88,29.71,8,3,20,0.04
2013-7-22,94,81,70,68,62,51,86,56,31,29.80,29.68,7,3,12,0.00
2013-7-23,84,74,66,63,54,48,86,51,31,29.94,29.74,7,2,12,0.04
2013-7-24,86,73,61,56,50,47,79,47,29,30.00,29.91,6,2,10,0.00
2013-7-25,81,74,69,64,56,49,78,55,35,29.97,29.91,11,4,17,0.00
2013-7-26,78,69,61,66,52,39,93,59,27,30.06,29.91,8,3,13,0.00
2013-7-27,75,65,55,48,40,34,72,44,24,30.09,29.94,7,2,11,0.00
2013-7-28,78,66,51,49,39,34,87,42,22,30.00,29.94,6,1,8,0.00
2013-7-29,66,63,59,62,51,35,90,68,34,30.00,29.94,8,3,12,0.13
2013-7-30,76,69,65,67,60,55,97,75,49,30.06,29.97,5,1,7,0.00
2013-7-31,87,74,63,67,56,49,97,58,30,30.09,29.97,5,1,8,0.00
2013-8-1,86,73,64,66,57,49,92,59,30,30.03,29.80,16,3,21,0.46
2013-8-2,85,75,67,66,57,50,86,56,35,29.94,29.77,8,3,13,0.00
2013-8-3,79,71,64,53,48,43,67,44,31,30.12,29.94,6,2,10,0.00
2013-8-4,78,70,61,61,51,46,70,51,37,30.12,29.94,9,3,13,0.00
2013-8-5,87,76,68,70,65,59,95,71,42,29.97,29.77,8,3,11,0.30
2013-8-6,89,78,67,70,64,56,91,65,38,29.88,29.74,10,2,14,0.33
2013-8-7,86,76,68,68,55,47,82,50,29,29.97,29.74,6,2,9,0.00
2013-8-8,79,71,66,59,54,50,69,56,39,29.97,29.88,5,2,7,0.00
2013-8-9,82,73,63,68,55,45,98,58,30,30.09,29.94,5,1,8,0.00
2013-8-10,83,73,59,60,50,47,82,48,29,30.15,30.03,8,3,13,0.00
2013-8-11,87,79,67,64,54,48,71,44,30,30.06,29.91,10,5,13,0.00
2013-8-12,87,77,68,66,55,43,79,51,23,30.00,29.91,5,2,9,0.00
2013-8-13,82,72,63,53,47,42,66,44,27,30.09,29.97,6,1,8,0.00
2013-8-14,75,67,59,54,47,43,69,50,34,30.12,29.97,7,3,10,0.04
2013-8-15,66,63,60,59,55,51,93,77,63,30.06,29.97,9,4,14,1.16
2013-8-16,74,67,62,54,49,44,73,55,39,30.15,30.03,8,3,13,0.00
2013-8-17,79,69,60,54,47,42,73,47,30,30.15,30.03,8,2,12,0.00
2013-8-18,80,70,57,55,48,44,80,48,30,30.09,29.97,9,3,12,0.00
2013-8-19,86,75,65,60,55,52,73,52,33,30.00,29.85,11,4,15,0.00
2013-8-20,89,79,70,61,58,54,71,51,32,29.91,29.83,12,5,19,0.00
2013-8-21,92,81,72,61,58,53,66,47,30,29.94,29.85,10,5,15,0.00
2013-8-22,84,77,70,61,58,54,71,53,38,30.00,29.88,6,3,10,0.00
2013-8-23,90,78,70,66,59,51,78,55,29,30.03,29.88,9,3,15,0.00
2013-8-24,92,82,74,63,59,55,65,48,31,30.00,29.91,11,5,18,0.00
2013-8-25,95,83,72,65,60,54,76,48,26,30.06,29.94,12,5,18,0.00
2013-8-26,95,84,74,63,58,53,67,43,27,30.00,29.85,11,6,15,0.00
2013-8-27,97,85,76,58,55,50,51,37,23,29.91,29.80,12,6,16,0.00
2013-8-28,96,82,72,58,52,44,53,37,19,29.94,29.85,8,3,13,0.00
2013-8-29,97,83,71,65,59,54,75,47,25,29.94,29.83,8,3,13,0.00
2013-8-30,98,84,72,66,60,52,68,47,27,29.85,29.77,6,2,9,0.00
2013-8-31,95,81,72,70,61,45,87,55,19,29.83,29.71,8,2,12,0.00
2013-9-1,84,76,68,65,52,40,81,48,23,29.94,29.71,9,3,15,0.20
2013-9-2,83,70,59,56,46,33,83,46,21,30.03,29.91,6,1,8,0.00
2013-9-3,87,71,56,56,47,42,80,47,24,30.03,29.91,6,2,9,0.00
2013-9-4,87,75,68,53,50,46,56,42,28,30.06,29.94,6,3,9,0.00
2013-9-5,86,76,68,60,53,48,74,47,28,30.12,30.00,7,3,10,0.04
2013-9-6,93,79,68,57,53,48,59,42,27,30.00,29.83,10,4,14,0.00
2013-9-7,88,79,71,64,58,51,67,50,30,29.88,29.80,8,3,10,0.00
2013-9-8,93,81,70,69,61,55,85,55,29,29.88,29.74,7,2,10,0.00
2013-9-9,98,85,75,63,48,40,61,30,16,29.77,29.68,13,6,19,0.00
2013-9-10,96,78,69,68,52,44,89,44,19,30.00,29.77,12,4,22,1.16
2013-9-11,84,75,69,68,60,49,91,64,32,30.06,29.94,7,1,11,0.34
2013-9-12,82,72,62,63,46,32,80,44,20,30.15,30.03,6,2,10,0.00
2013-9-13,77,65,54,47,38,34,67,39,23,30.18,29.97,6,1,8,0.00
2013-9-14,76,66,56,44,40,37,57,40,25,30.03,29.80,11,4,14,0.00
2013-9-15,69,66,63,66,50,42,96,59,39,30.18,29.77,8,3,13,0.70
2013-9-16,68,61,56,49,44,40,74,53,39,30.24,30.09,8,3,12,0.00
2013-9-17,72,64,57,66,58,49,98,84,62,30.12,29.83,8,4,14,0.25
2013-9-18,90,78,67,64,57,50,87,53,28,29.85,29.62,13,6,23,0.00
2013-9-19,80,71,59,62,50,36,84,49,33,29.94,29.62,11,4,18,0.30
2013-9-20,72,60,50,44,36,29,68,44,22,30.00,29.88,10,3,17,0.00
2013-9-21,77,62,46,46,37,33,75,44,22,30.00,29.80,7,2,10,0.00
2013-9-22,81,68,57,46,40,33,67,39,20,29.85,29.74,12,5,19,0.00
2013-9-23,76,66,56,44,39,34,62,38,23,29.80,29.65,12,6,18,0.00
2013-9-24,72,66,59,50,44,38,71,46,36,29.85,29.62,9,2,14,0.00
2013-9-25,80,66,53,57,47,42,85,54,28,29.85,29.68,9,3,14,0.00
2013-9-26,87,73,62,53,47,40,72,43,20,29.77,29.65,14,7,21,0.00
2013-9-27,88,77,70,49,45,38,47,34,20,29.77,29.68,15,7,22,0.00
2013-9-28,73,63,52,63,40,28,93,46,23,30.00,29.62,11,4,15,0.50
2013-9-29,77,62,49,35,32,28,50,34,20,30.00,29.80,11,4,18,0.00
2013-9-30,81,66,54,43,37,32,64,37,20,29.83,29.62,11,5,17,0.00
2013-10-1,81,68,57,47,38,30,67,36,20,29.91,29.71,6,2,9,0.00
2013-10-2,85,71,58,58,46,32,71,43,23,29.91,29.74,12,3,15,0.00
2013-10-3,79,69,60,61,52,46,98,59,35,29.80,29.65,11,3,18,1.54
2013-10-4,82,67,51,63,52,26,86,63,30,29.83,29.56,16,6,21,0.76
2013-10-5,54,47,41,32,24,20,70,41,30,29.88,29.77,16,9,22,0.00
2013-10-6,51,46,41,43,36,25,83,67,40,29.97,29.74,11,4,17,0.04
2013-10-7,74,57,42,33,29,26,69,38,18,30.06,29.91,10,4,14,0.00
2013-10-8,77,63,50,34,31,28,49,31,20,29.94,29.83,14,6,23,0.00
2013-10-9,78,65,53,40,36,33,53,36,22,29.97,29.85,10,5,18,0.00
2013-10-10,80,67,55,44,39,36,57,38,23,29.94,29.74,12,5,19,0.00
2013-10-11,78,66,53,50,39,24,62,40,15,29.83,29.56,15,7,24,0.00
2013-10-12,68,55,44,32,25,17,56,34,17,30.18,29.80,10,2,13,0.00
2013-10-13,69,56,38,31,24,17,61,29,20,30.33,30.18,7,2,10,0.00
2013-10-14,60,53,47,59,38,21,97,59,29,30.21,29.68,15,6,21,0.94
2013-10-15,55,48,45,44,30,25,67,50,41,30.03,29.74,13,7,19,0.00
2013-10-16,61,49,43,32,26,17,61,43,22,30.06,29.91,8,3,12,0.00
2013-10-17,61,47,37,31,26,17,64,44,28,30.00,29.83,11,3,16,0.00
2013-10-18,52,42,34,29,22,16,72,47,27,30.09,29.94,8,3,13,0.00
2013-10-19,63,47,33,26,23,18,65,41,24,29.97,29.74,12,4,18,0.00
2013-10-20,65,52,41,32,27,23,51,39,23,29.97,29.68,8,3,15,0.00
2013-10-21,55,42,31,29,25,21,83,52,29,30.06,29.88,8,2,10,0.00
2013-10-22,49,43,38,35,27,21,72,53,40,30.09,29.80,8,3,14,0.00
2013-10-23,49,40,31,32,27,21,83,62,39,30.15,30.00,6,2,8,0.00
2013-10-24,52,40,32,25,18,10,67,44,23,30.36,30.15,6,2,12,0.00
2013-10-25,59,44,29,24,17,11,49,35,25,30.36,30.00,14,4,20,0.00
2013-10-26,53,45,32,26,20,12,51,38,26,30.18,29.97,10,3,14,0.00
2013-10-27,71,49,32,30,21,16,54,36,19,30.09,29.74,9,3,14,0.00
2013-10-28,55,48,40,35,24,20,74,40,33,30.12,29.88,7,3,13,0.00
2013-10-29,53,48,42,51,37,25,94,71,34,30.12,29.85,6,3,12,0.05
2013-10-30,57,49,42,56,46,35,98,90,76,29.94,29.71,10,2,17,0.25
2013-10-31,59,45,37,38,31,22,97,62,29,29.74,29.47,8,3,13,0.00
2013-11-1,60,47,38,34,28,22,68,50,25,29.94,29.56,12,4,18,0.10
2013-11-2,60,46,35,29,21,8,66,39,24,30.12,29.94,7,2,13,0.00
2013-11-3,57,50,42,26,22,19,51,34,26,30.09,29.68,15,6,26,0.00
2013-11-4,59,49,36,34,26,19,62,41,27,30.09,29.74,8,3,13,0.00
2013-11-5,45,40,34,40,32,22,93,73,45,30.09,29.77,9,3,13,1.19
2013-11-6,42,36,32,31,25,21,88,64,44,30.21,29.97,8,3,14,0.04
2013-11-7,51,38,29,25,17,9,79,46,21,30.36,30.21,10,3,14,0.00
2013-11-8,62,48,35,26,20,10,48,33,24,30.21,29.68,14,6,28,0.00
2013-11-9,62,49,40,25,22,18,50,35,24,30.30,29.85,8,3,13,0.04
2013-11-10,54,44,30,26,18,13,53,37,26,30.33,30.09,8,3,11,0.00
2013-11-11,47,33,18,38,14,-1,75,48,33,30.68,30.03,9,4,18,0.00
2013-11-12,34,22,10,4,-1,-6,56,37,23,30.83,30.48,7,3,9,0.00
2013-11-13,50,34,23,17,8,-1,42,33,26,30.48,29.94,11,6,19,0.00
2013-11-14,55,43,34,23,18,13,50,36,28,29.94,29.83,9,2,12,0.00
2013-11-15,57,43,29,33,23,17,67,47,27,29.85,29.59,9,3,14,0.00
2013-11-16,64,52,41,46,30,16,85,48,24,29.59,29.26,14,5,21,0.00
2013-11-17,48,45,33,25,24,17,52,44,37,30.06,29.32,4,0,15,0.09
2013-11-18,59,44,30,25,17,8,56,35,17,30.21,29.44,8,2,15,0.00
2013-11-19,62,49,34,24,16,11,42,28,19,30.12,29.80,17,6,26,0.00
2013-11-20,58,48,38,26,21,16,60,36,26,29.88,29.71,11,6,17,0.00
2013-11-21,38,28,20,30,15,7,76,57,43,30.48,29.88,10,5,17,0.00
2013-11-22,31,21,13,8,0,-4,59,40,30,30.65,30.48,8,3,15,0.04
2013-11-23,25,18,11,4,-4,-11,53,38,27,30.80,30.56,7,2,13,0.00
2013-11-24,32,21,10,5,-3,-12,45,35,31,30.68,30.18,10,5,15,0.00
2013-11-25,47,33,25,19,11,0,51,40,28,30.18,30.03,10,4,13,0.00
2013-11-26,32,26,17,14,5,-4,58,41,25,30.36,30.15,10,4,15,0.00
2013-11-27,33,23,10,8,1,-6,56,39,30,30.39,29.97,10,4,15,0.00
2013-11-28,37,28,19,11,6,1,56,40,30,30.42,30.00,9,3,13,0.00
2013-11-29,46,31,18,16,10,0,55,42,29,30.42,30.09,8,4,13,0.00
2013-11-30,60,40,25,23,16,10,63,39,22,30.09,30.00,4,1,6,0.00
2013-12-1,48,36,25,20,15,11,64,43,28,30.12,29.80,4,1,6,0.00
2013-12-2,66,45,32,27,20,14,64,39,20,29.83,29.50,7,3,9,0.00
2013-12-3,47,38,34,27,22,16,76,53,38,29.65,29.44,6,2,11,0.00
2013-12-4,34,22,15,30,10,-4,88,63,41,30.03,29.62,10,5,20,0.00
2013-12-5,16,11,7,-2,-9,-15,44,39,34,30.36,30.03,11,4,16,0.00
2013-12-6,14,5,-2,-9,-17,-23,34,34,34,30.65,30.36,7,3,12,0.00
2013-12-7,12,2,-4,-11,-20,-25,34,34,34,30.65,30.33,6,2,10,0.00
2013-12-8,18,13,8,10,-2,-13,75,54,34,30.36,29.94,7,3,12,0.00
2013-12-9,13,5,-5,5,-2,-12,70,70,70,30.30,30.00,16,4,23,0.00
2013-12-10,28,22,12,24,3,-5,86,45,34,30.21,30.03,14,5,18,0.00
2013-12-11,27,10,1,19,-7,-16,71,46,44,30.62,30.18,10,4,16,0.00
2013-12-12,33,20,8,11,2,-9,56,45,37,30.39,30.03,8,3,10,0.00
2013-12-13,36,25,15,14,10,3,67,54,39,30.06,29.85,6,2,10,0.00
2013-12-14,22,18,13,10,4,1,64,55,44,30.18,30.03,7,3,12,0.00
2013-12-15,28,21,14,10,7,2,63,54,42,30.15,29.91,5,2,7,0.00
2013-12-16,49,28,13,21,12,2,65,52,31,30.12,29.91,7,2,14,0.00
2013-12-17,43,33,26,20,12,3,70,45,23,30.24,30.06,9,3,13,0.00
2013-12-18,57,39,29,22,15,8,52,38,25,30.06,29.65,8,3,14,0.00
2013-12-19,35,29,18,19,14,10,71,53,40,29.83,29.71,8,3,14,0.00
2013-12-20,18,15,12,10,4,2,71,61,54,29.94,29.83,8,3,14,0.00
2013-12-21,25,21,17,12,7,4,67,55,43,29.88,29.74,7,2,12,0.00
2013-12-22,21,14,8,11,0,-11,70,53,39,30.33,29.83,8,4,13,0.00
2013-12-23,14,6,0,-7,-13,-18,40,40,40,30.53,30.33,8,3,13,0.00
2013-12-24,20,9,1,5,-9,-18,52,42,40,30.48,30.03,12,6,20,0.00
2013-12-25,73,34,20,51,15,3,100,47,19,30.24,28.94,16,6,18,0.00
2013-12-26,50,34,25,19,11,6,55,39,24,30.18,29.00,10,4,12,0.00
2013-12-27,63,41,23,21,13,6,56,35,16,30.21,29.97,18,6,18,0.00
2013-12-28,59,40,14,19,14,-4,48,35,19,30.09,29.71,26,8,26,0.00
2013-12-29,15,8,4,-4,-14,-25,44,35,24,30.33,30.09,21,6,21,0.00
2013-12-30,34,17,5,13,-8,-24,47,31,24,30.24,30.00,15,6,15,0.00
2013-12-31,39,16,8,19,-2,-8,55,43,31,30.24,28.79,10,4,10,0.00
2014-1-1,10,7,2,-8,-10,-14,44,44,44,30.33,30.06,14,5,14,0.00
2014-1-2,12,4,-1,-6,-14,-18,44,44,44,30.39,30.27,8,2,8,0.00